CW9927 Weather Reports


time (UTC)temp
F
wind
direction
speed
knots
gust
knots
rain 1hr
in
rain 24hr
in
rain mn
in
humidity
%
barometer
mb
20260901081117 60 0.0 0.0 0.00 0.00 0.00 84 1015.1
20260901080119 60 0.0 0.0 0.00 0.00 0.00 84 1015.1
20260901075117 59 0.0 0.0 0.00 0.00 0.00 84 1015.0
20260901074117 59 0.0 0.0 0.00 0.00 0.00 84 1015.1
20260901073117 59 0.0 0.0 0.00 0.00 0.00 84 1015.1
20260901072117 59 0.0 0.0 0.00 0.00 0.00 84 1015.1
20260901071117 59 0.0 0.0 0.00 0.00 0.00 84 1015.1
20260901065117 59 0.0 0.0 0.00 0.00 0.00 84 1015.3
20260901064116 59 0.0 0.0 0.00 0.00 0.00 85 1015.1
20260901063117 59 0.0 0.0 0.00 0.00 0.00 85 1015.2
20260901062119 59 0.0 0.0 0.00 0.00 0.00 85 1015.3
20260901061119 59 0.0 0.0 0.00 0.00 0.00 85 1015.3
20260901060138 59 0.0 0.0 0.00 0.00 0.00 84 1015.4
20260901055117 59 0.0 0.0 0.00 0.00 0.00 83 1015.3
20260901054118 59 0.0 0.0 0.00 0.00 0.00 82 1015.3
20260901053118 60 0.0 0.0 0.00 0.00 0.00 83 1015.2
20260901052117 60 0.0 0.0 0.00 0.00 0.00 83 1015.2
20260901051117 60 0.0 0.0 0.00 0.00 0.00 83 1015.2
20260901050137 60 0.0 0.0 0.00 0.00 0.00 83 1015.3
20260901045117 59 0.0 0.0 0.00 0.00 0.00 82 1015.1
20260901044117 59 0.0 0.0 0.00 0.00 0.00 82 1015.1
20260901043118 59 0.0 0.0 0.00 0.00 0.00 82 1015.0
20260901042138 59 0.0 0.0 0.00 0.00 0.00 82 1014.9
20260901041117 59 0.0 0.0 0.00 0.00 0.00 82 1014.7
20260901040118 59 0.0 0.0 0.00 0.00 0.00 82 1014.6
20260901035117 59 0.0 0.0 0.00 0.00 0.00 81 1014.5
20260901034158 59 0.0 0.0 0.00 0.00 0.00 81 1014.5
20260901033118 60 0.0 0.0 0.00 0.00 0.00 81 1014.4
20260901032117 60 0.0 0.0 0.00 0.00 0.00 81 1014.1
20260901031118 60 0.0 0.0 0.00 0.00 0.00 81 1014.1
20260901030117 60 0.0 0.0 0.00 0.00 0.00 80 1014.0
20260901025158 60 0.0 0.0 0.00 0.00 0.00 80 1013.9
20260901024117 61 0.0 0.0 0.00 0.00 0.00 79 1013.9
20260901023118 61 0.0 0.0 0.00 0.00 0.00 78 1013.8
20260901022117 62 0.0 0.0 0.00 0.00 0.00 77 1013.6
20260901021117 63 0.0 0.0 0.00 0.00 0.00 75 1013.6
20260901020157 63 0.0 0.0 0.00 0.00 0.00 74 1013.6
20260901015117 64 0.0 0.0 0.00 0.00 0.00 74 1013.7
20260901014117 64 0.0 0.0 0.00 0.00 0.00 73 1013.6
20260901013117 65 0.0 0.0 0.00 0.00 0.00 72 1013.5
20260901012117 65 0.0 0.0 0.00 0.00 0.00 71 1013.5
20260901011158 66 225 3.5 7.8 0.00 0.00 0.00 70 1013.5
20260901010239 67 270 2.6 8.7 0.00 0.00 0.00 68 1013.3
20260901005317 68 270 6.1 11.3 0.00 0.00 0.00 67 1013.3
20260901004316 69 0.0 0.0 0.00 0.00 0.00 66 1013.2
20260901003316 69 0.0 0.0 0.00 0.00 0.00 65 1013.1
20260901002317 69 0.0 0.0 0.00 0.00 0.00 64 1013.2
20260901001316 69 0.0 0.0 0.00 0.00 0.00 64 1013.1
20260901000337 70 248 2.6 5.2 0.00 0.00 0.00 63 1013.2
20260831235316 71 0.0 0.0 0.00 0.00 0.00 63 1013.1
20260831234316 72 0.0 0.0 0.00 0.00 0.00 61 1013.1
20260831233316 72 0.0 0.9 0.00 0.00 0.00 62 1013.1
20260831232316 71 0.0 0.0 0.00 0.00 0.00 62 1013.2
20260831231316 71 0.0 0.9 0.00 0.00 0.00 63 1013.3
20260831230316 72 0.0 0.0 0.00 0.00 0.00 60 1013.4
20260831225316 72 0.0 0.0 0.00 0.00 0.00 60 1013.5
20260831224337 73 0.0 1.7 0.00 0.00 0.00 59 1013.5
20260831223316 73 0.0 1.7 0.00 0.00 0.00 59 1013.7
20260831222316 73 0.0 0.0 0.00 0.00 0.00 58 1013.7
20260831221316 73 0.0 0.0 0.00 0.00 0.00 58 1013.8
20260831220316 73 0.0 0.0 0.00 0.00 0.00 57 1013.9
20260831215316 73 0.0 0.0 0.00 0.00 0.00 57 1014.0
20260831214316 73 0.0 0.0 0.00 0.00 0.00 56 1014.1
20260831213316 73 0.0 0.0 0.00 0.00 0.00 55 1014.2
20260831212316 73 0.0 0.0 0.00 0.00 0.00 56 1014.3
20260831211317 72 0.0 0.0 0.00 0.00 0.00 57 1014.4
20260831210316 71 0.0 0.0 0.00 0.00 0.00 59 1014.4
20260831205316 71 0.0 0.0 0.00 0.00 0.00 58 1014.5
20260831204317 71 0.0 0.0 0.00 0.00 0.00 60 1014.6
20260831203336 69 0.0 0.0 0.00 0.00 0.00 62 1014.7
20260831202316 69 0.0 0.0 0.00 0.00 0.00 63 1014.8
20260831201316 69 0.0 0.0 0.00 0.00 0.00 62 1014.9
20260831200337 68 0.0 0.0 0.00 0.00 0.00 64 1015.1
20260831195317 68 0.0 0.0 0.00 0.00 0.00 65 1015.2
20260831194318 67 0.0 0.0 0.00 0.00 0.00 66 1015.3
20260831193316 67 0.0 0.0 0.00 0.00 0.00 66 1015.4
20260831192316 67 0.0 0.0 0.00 0.00 0.00 67 1015.5
20260831191316 66 0.0 0.0 0.00 0.00 0.00 69 1015.7
20260831190345 64 0.0 0.0 0.00 0.00 0.00 71 1015.7
20260831190221 64 0.0 0.0 0.00 0.00 0.00 71 1015.8
20260831185337 64 0.0 0.0 0.00 0.00 0.00 72 1015.9
20260831184318 63 0.0 0.0 0.00 0.00 0.00 73 1015.8
20260831183337 63 0.0 0.0 0.00 0.00 0.00 75 1015.9
20260831182317 61 0.0 0.0 0.00 0.00 0.00 76 1016.0
20260831181318 61 0.0 0.0 0.00 0.00 0.00 77 1016.1
20260831180317 61 0.0 0.0 0.00 0.00 0.00 78 1016.2
20260831175317 60 0.0 0.0 0.00 0.00 0.00 78 1016.2
20260831174317 60 0.0 0.0 0.00 0.00 0.00 78 1016.2
20260831173358 60 0.0 0.0 0.00 0.00 0.00 78 1016.1
20260831172337 60 0.0 0.0 0.00 0.00 0.00 78 1015.9
20260831171317 59 0.0 0.0 0.00 0.00 0.00 79 1015.9
20260831170317 59 0.0 0.0 0.00 0.00 0.00 80 1015.9
20260831165317 59 0.0 0.0 0.00 0.00 0.00 80 1015.8
20260831164357 59 0.0 0.0 0.00 0.00 0.00 81 1015.7
20260831163317 58 0.0 0.0 0.00 0.00 0.00 81 1015.7
20260831162317 58 0.0 0.0 0.00 0.00 0.00 81 1015.6
20260831161317 58 0.0 0.0 0.00 0.00 0.00 82 1015.7
20260831160317 58 0.0 0.0 0.00 0.00 0.00 82 1015.7
20260831155317 57 0.0 0.0 0.00 0.00 0.00 83 1015.7
20260831154318 57 0.0 0.0 0.00 0.00 0.00 83 1015.6
20260831153337 57 0.0 0.0 0.00 0.00 0.00 84 1015.6
20260831152317 57 0.0 0.0 0.00 0.00 0.00 84 1015.5
20260831151317 57 0.0 0.0 0.00 0.00 0.00 85 1015.5
20260831150317 56 0.0 0.0 0.00 0.00 0.00 86 1015.4
20260831145317 56 0.0 0.0 0.00 0.00 0.00 86 1015.4
20260831144337 56 0.0 0.0 0.00 0.00 0.00 87 1015.3
20260831143358 56 0.0 0.0 0.00 0.00 0.00 87 1015.2
20260831142317 56 0.0 0.0 0.00 0.00 0.00 87 1015.0
20260831141317 56 0.0 0.0 0.00 0.00 0.00 87 1015.0
20260831140337 56 0.0 0.0 0.00 0.00 0.00 88 1014.9
20260831135337 55 0.0 0.0 0.00 0.00 0.00 89 1014.8
20260831134337 55 0.0 0.0 0.00 0.00 0.00 89 1014.6
20260831133317 55 0.0 0.0 0.00 0.00 0.00 89 1014.6
20260831132337 55 0.0 0.0 0.00 0.00 0.00 89 1014.5
20260831131317 55 0.0 0.0 0.00 0.00 0.00 89 1014.5
20260831130358 56 0.0 0.0 0.00 0.00 0.00 88 1014.5
20260831130213 56 0.0 0.0 0.00 0.00 0.00 88 1014.5
20260831125137 56 0.0 0.0 0.00 0.00 0.00 88 1014.4
20260831124116 56 0.0 0.0 0.00 0.00 0.00 88 1014.2
20260831123116 56 0.0 0.0 0.00 0.00 0.00 88 1014.1
20260831122116 56 0.0 0.0 0.00 0.00 0.00 88 1014.2
20260831121116 56 0.0 0.0 0.00 0.00 0.00 88 1014.2
20260831120116 56 0.0 0.0 0.00 0.00 0.00 88 1014.2
20260831115119 56 0.0 0.0 0.00 0.00 0.00 88 1014.1
20260831114136 56 0.0 0.0 0.00 0.00 0.00 88 1014.1
20260831113116 56 0.0 0.0 0.00 0.00 0.00 89 1014.0
20260831112116 56 0.0 0.0 0.00 0.00 0.00 89 1013.9
20260831111116 56 0.0 0.0 0.00 0.00 0.00 89 1014.0
20260831110116 56 0.0 0.0 0.00 0.00 0.00 89 1014.0
20260831105138 56 0.0 0.0 0.00 0.00 0.00 89 1014.0
20260831104117 56 0.0 0.0 0.00 0.00 0.00 89 1014.0
20260831103117 56 0.0 0.0 0.00 0.00 0.00 89 1014.0
20260831102137 56 0.0 0.0 0.00 0.00 0.00 89 1014.1
20260831101117 56 0.0 0.0 0.00 0.00 0.00 89 1014.1
20260831100117 56 0.0 0.0 0.00 0.00 0.00 89 1014.2
20260831095137 56 0.0 0.0 0.00 0.00 0.00 89 1014.1
20260831094117 56 0.0 0.0 0.00 0.00 0.00 89 1014.0
20260831093139 56 0.0 0.0 0.00 0.00 0.00 89 1014.0
20260831092117 56 0.0 0.0 0.00 0.00 0.00 89 1013.9
20260831091137 56 0.0 0.0 0.00 0.00 0.00 89 1014.0
20260831090118 56 0.0 0.0 0.00 0.00 0.00 89 1014.0
20260831085137 56 0.0 0.0 0.00 0.00 0.00 89 1014.0
20260831084119 56 0.0 0.0 0.00 0.00 0.00 89 1014.0
20260831083117 56 0.0 0.0 0.00 0.00 0.00 90 1014.0
20260831082117 56 0.0 0.0 0.00 0.00 0.00 90 1014.1